www.pogodaiklimat.ru

Погода и климат >> Архив погоды >> Россия >> Амурская область >> Поярково


ПОГОДА в Поярково

  • Прогноз погоды в Поярково
  • Монитор погоды в Поярково

АРХИВ ПОГОДЫ в Поярково

Время (UTC), дата Ветер
(напр.,м/с)
 
Видим.   Явления Облачность Т
(С)
Тd
(С)
f
(%)
Тe
(С)
Тes
(С)
Комфортность P
(гПа)
Po
(гПа)
Тmin
(С)
Tmax
(С)
R
(мм)
R24
(мм)
S
(см)
03 12.09 Ю 3 20 км 10/0
[Ci]
+22.5 +9.3 43 +24 +31 комфорт 1016.5 1003.2
06 12.09 ЮЗ 3 20 км 10/0
[Ci sp]
+24.4 +7.8 35 +25 +29 комфорт 1014.0 1000.8
09 12.09 ЮЗ 1 20 км 8/0
[Ci fib]
+22.4 +12.2 52 +25 +25 комфорт 1013.4 1000.1
12 12.09 Ю 1 н/о ясно +13.5 +11.3 87 +14 +14 1013.2 999.6 +24.8
18 12.09 ЮВ 3 н/о 10/3 1000 м
[Sc Ci fib]
+13.2 +9.7 79 +12 +12 1010.2 996.6
21 12.09 ЮВ 3 20 км 9/0
[Ac und]
+13.2 +8.9 75 +12 +12 1007.1 993.5
00 13.09 ЮВ 4 20 км 10/0
[Ac und]
+15.1 +9.8 71 +14 +15 1005.7 992.3 +12.8
03 13.09 ЮВ 3 10 км слаб. ливневой дождь 10/10 600 м
[Cb cap]
+17.2 +13.2 77 +17 +17 1003.7 990.3
06 13.09 Ю 1 4000 м слаб. ливневой дождь 10/10 600 м
[Cb cap]
+16.2 +14.5 90 +17 +17 1002.3 989.0
09 13.09 З 1 4000 м слаб. ливневой дождь 9/9 600 м
[Cb cap Ac cuf]
+15.2 +13.6 90 +16 +16 1004.2 990.7
12 13.09 СЗ 1 н/о {ливн. осадки} 8/3 600 м
[Cb cap Ac cast Ci sp]
+13.6 +12.1 91 +14 +14 1006.8 993.2 +17.6 9
15 13.09 З 1 н/о дымка 3/0
[Ci fib]
+10.5 +9.5 94 +10 +10 1008.2 994.5
18 13.09 СЗ 1 н/о ясно +8.5 +6.8 89 +8 +8 1009.8 995.9
21 13.09 штиль 0 20 км ясно +6.3 +5.2 93 +5 +5 1011.1 997.1
00 14.09 ЮЗ 1 20 км ясно +13.7 +9.2 74 +14 +19 1011.3 997.7 +6.0
03 14.09 З 1 20 км 1/1 1000 м
[Cu med, cong]
+19.5 +9.6 53 +22 +32 комфорт 1010.1 996.7
06 14.09 З 2 20 км 6/6 600 м
[Cb calv]
+22.2 +8.0 40 +23 +26 комфорт 1008.8 995.6
09 14.09 З 1 20 км 3/3 1000 м
[Cu med, cong]
+20.0 +9.3 50 +22 +23 комфорт 1008.9 995.6
12 14.09 ЮЗ 2 н/о 8/6 1000 м
[Sc Ac lent]
+13.1 +10.0 81 +12 +12 1010.6 996.9 +22.7
15 14.09 Ю 1 н/о 10/8 1000 м
[Sc diur, vesp Ci fib]
+12.1 +10.9 92 +12 +12 1010.1 996.4
18 14.09 В 1
{12}
н/о ливневой дождь 10/10 600 м
[Cb cap]
+12.1 +10.7 91 +12 +12 1010.0 996.3
21 14.09 ЮВ 2 20 км 6/6 1000 м
[Sc]
+11.2 +9.3 88 +10 +10 1007.4 993.7
00 15.09 ЮВ 2 20 км 9/0
[Ac cast Ci fib]
+15.2 +8.9 66 +15 +17 1005.2 991.7 +10.7 1
03 15.09 ЮЗ 6-11
{13}
20 км 3/0
[Ac cast]
+23.5 +6.1 33 +24 +27 комфорт 1001.8 988.7
06 15.09 ЮЗ 4
{15}
20 км 9/9 1000 м
[Sc diur, vesp]
+23.5 +5.4 31 +23 +24 комфорт 1000.0 987.0
09 15.09 штиль 0
{12}
20 км в посл. час ливневой дождь {гроза} 9/9 600 м
[Cb cap]
+14.6 +13.3 92 +14 +14 1002.6 989.1
12 15.09 СЗ 6-10
{11}
н/о {гроза, ливн. осадки} 10/10 600 м
[Cb cap]
+13.2 +1.0 43 +11 +11 1007.6 994.0 +25.4 3
15 15.09 З 1
{11}
н/о ясно +3.1 +0.5 83 +2 +2 1011.1 996.9
18 15.09 СЗ 3 н/о ясно +6.2 -3.1 51 +4 +4 1011.0 997.0
21 15.09 З 1 10 км ясно +4.3 -3.5 57 +3 +3 1012.4 998.3
00 16.09 З 3 20 км ясно +8.8 -2.6 45 +7 +10 1012.8 998.9 +2.9
03 16.09 З 4-10
{10}
20 км ясно +14.6 -3.0 30 +14 +20 1012.0 998.4
06 16.09 З 3
{10}
20 км ясно +16.2 -3.9 25 +16 +21 1011.5 997.9
09 16.09 З 2
{11}
20 км ясно +14.3 -2.0 32 +14 +14 1012.2 998.5
12 16.09 штиль 0 н/о ясно +5.6 +3.1 84 +5 +5 1013.6 999.5 +16.3
15 16.09 Ю 1 н/о ясно +3.5 +2.1 91 +2 +2 1013.9 999.7
18 16.09 Ю 1 н/о 6/0
[Ci fib]
+6.8 +1.3 68 +6 +6 1012.9 998.9
21 16.09 В 2 20 км ясно +3.5 +0.4 80 +1 +1 1012.2 998.0
00 17.09 Ю 2 20 км 8/0
[Ac trans Ci fib]
+11.2 +1.4 51 +10 +13 1010.2 996.4 +2.8
03 17.09 Ю 3
{10}
20 км 10/4 600 м
[Cb cap Ac As Ci fib]
+17.6 +0.1 31 +18 +20 1006.6 993.2
06 17.09 ЮЗ 3
{12}
10 км 10/8 600 м
[Cb cap Ac As]
+17.3 +1.6 35 +17 +18 1004.2 990.8
09 17.09 З 2
{10}
4000 м слаб. ливневой дождь 10/10 600 м
[Cb cap]
+11.0 +8.4 84 +10 +10 1005.3 991.6
12 17.09 С 5 н/о ливневой дождь 10/10 600 м
[Cb cap]
+7.0 +5.2 88 +3 +3 1006.8 992.9 +19.5 7
15 17.09 СЗ 4
{11}
н/о в посл. час ливневой дождь 10/10 600 м
[Cb cap]
+3.7 +1.7 87 -1 -1 1008.7 994.6
18 17.09 СЗ 3 н/о {ливн. осадки} 10/10 600 м
[Cb cap]
+4.1 +1.8 85 0 0 1008.8 994.7
21 17.09 СЗ 4 20 км 10/10 600 м
[Sc]
+4.4 +1.0 79 0 0 1008.6 994.5
00 18.09 СЗ 5-11
{12}
20 км 10/10 1000 м
[Sc]
+4.6 -0.4 70 0 0 1009.3 995.2 +2.3 7
03 18.09 СЗ 6-13
{13}
20 км 9/9 1000 м
[Sc]
+7.9 -1.6 51 +4 +5 1008.7 994.8
06 18.09 СЗ 4-11
{14}
20 км 10/10 1000 м
[Sc]
+8.5 -2.3 47 +6 +6 1009.3 995.4
09 18.09 СЗ 4
{11}
20 км 10/10 1000 м
[Sc]
+8.1 -2.0 49 +5 +5 1010.6 996.7
12 18.09 СЗ 4
{10}
н/о 10/10 1000 м
[Sc]
+7.7 -1.7 51 +5 +5 1011.2 997.2 +8.6
15 18.09 СЗ 4
{10}
н/о 10/10 1000 м
[Sc]
+6.4 -3.6 49 +3 +3 1010.9 996.9
18 18.09 СЗ 5 н/о 6/6 1000 м
[Sc]
+4.0 -3.4 58 -1 -1 1011.7 997.5
21 18.09 СЗ 3 20 км 3/3 1000 м
[Sc]
+1.9 -3.0 70 -2 -2 1013.2 998.9
00 19.09 СЗ 5
{11}
20 км 10/10 1000 м
[Sc]
+5.4 -3.0 55 +1 +1 1014.2 1000.0 +1.8

 

Местоположение метеостанции Поярково (Амурская область, Россия): широта 49.62 долгота 128.60 высота над уровнем моря 115 м.

В архиве по умолчанию представлена погода в Поярково за последнюю неделю. Архивные данные за месяц целиком и за предыдущие месяцы, начиная с января 2011 года, Вы можете получить, выбрав интересующий диапазон дат из раскрывающегося списка и нажав кнопку "Ввод!".


*Определитесь, кто Вы:
робот инопланетянин человек

Внимание! Время в таблицах - всемирное. Для получения местного времени необходимо прибавить поправку, которая равна 9 ч.

Смотрите также архив погоды в соседних городах и на ближайших метеорологических станциях:

Погода в Константиновке (Амурская область, Россия) (50 км)
Погода в Завитае (Амурская область, Россия) (80 км)
Погода в Екатеринославке (Амурская область, Россия) (88 км)
Погода в Суньу (Хэйлунцзян, Китай) (93 км)
Погода в Малиновке (Амурская область, Россия) (95 км)
Погода в Архаре (Амурская область, Россия) (104 км)
Погода в Айгуне (Хэйлунцзян, Китай) (108 км)
Погода в Благовещенске (Амурская область, Россия) (113 км)
Погода в Братолюбовке (Амурская область, Россия) (138 км)
Погода в Белогорске (Амурская область, Россия) (145 км)

Пояснения к столбцам:

Ветер - указаны скорость ветра в м/с - средняя за 10 мин, порывы в срок и между сроками (в фигурных скобках) и направление, откуда дует ветер: С - северный, СВ - северо-восточный, В - восточный, ЮВ - юго-восточный, Ю - южный, ЮЗ - юго-западный, З - западный, СЗ - северо-западный.
Видимость - горизонтальная дальность видимости в метрах или километрах. При видимости от 1 до 10 км при отсутствии осадков обычно наблюдается дымка, при ухудшении видимости до 1 км и менее - туман. В сухую погоду видимость может ухудшаться дымом, пылью или мглою.
Явления - указаны атмосферные явления, наблюдавшиеся в срок или в последний час перед сроком; фигурными скобками обозначены явления, наблюдавшиеся между сроками (за 1-3 часа до срока); квадратными скобками обозначены град или гололедные отложения с указанием их диаметра в мм.
Облачность - указаны через наклонную черту общая и нижняя облачность в баллах и высота нижней границы облаков в метрах; квадратными скобками обозначены формы облаков: Ci - перистые, Cs - перисто-слоистые, Cc - перисто-кучевые, Ac - высококучевые, As - высокослоистые, Sc - слоисто-кучевые, Ns - слоисто-дождевые, Cu - кучевые, Cb - кучево-дождевые. Подробнее классификацию облаков см. в Атласе облаков (PDF).
T - Температура воздуха - температура, измеренная на высоте 2 м над землей.
Td - Температура точки росы - температура, при понижении до которой содержащийся в воздухе водяной пар достигнет насыщения.
f - Относительная влажность воздуха - влажноcть воздуха, измеренная на высоте 2 м над землей.
Te - Эффективная температура - температура, которую ощущает одетый по сезону человек в тени. Характеристика душности погоды. При расчете учитывается влияние влажности воздуха и скорости ветра на теплоощущения человека.
Tes - Эффективная температура на солнце - температура, которую ощущает человек, с поправкой на солнечный нагрев. Характеристика знойности погоды. Зависит от высоты солнца над горизонтом, облачности и скорости ветра. Ночью, в пасмурную погоду, а также при ветре 12 м/с и более поправка равна нулю.
P - Атмосферное давление - приведенное к уровню моря атмосферное давление.
Po - Атмосферное давление - измеренное на уровне метеостанции атмосферное давление.
Tmin - Минимальная температура - минимум температуры воздуха на высоте 2 м над землей.
Tmax - Максимальная температура - максимум температуры воздуха на высоте 2 м над землей.
R - Количество осадков - Количество выпавших осадков за период времени, мм. При наведении курсора мыши на число - период времени, за который выпало указанное количество осадков.
R24 - Количество осадков - Количество выпавших осадков за 24 часа, мм.
S - Снежный покров - Высота снежного покрова, см. При наведении курсора мыши на число - состояние снежного покрова и степень покрытия местности в баллах.